Silver City, NM

11:36 AM MST on December 08, 2019 (GMT -0700)
Grant County

Weather History for KSVC - October, 2019

Change the Weather History Date:

Sunday, October 27, 2019

  Actual Average (KDMN) Record (KDMN)
Temperature  
Mean Temperature 54 °F -  
Max Temperature 71 °F 73 °F 86 °F (1959)
Min Temperature 36 °F 39 °F 27 °F (1970)
Degree Days  
Heating Degree Days 12    
Growing Degree Days 4 (Base 50)    
Moisture  
Dew Point 18 °F    
Average Humidity 26    
Maximum Humidity 39    
Minimum Humidity 12    
Precipitation  
Precipitation 0.00 in - - ()
Sea Level Pressure  
Sea Level Pressure 29.97 in    
Wind  
Wind Speed 8 mph (West)    
Max Wind Speed 16 mph    
Max Gust Speed 24 mph    
Visibility 10 miles    
Events      
Averages and records for this station are not official NWS values.
T = Trace of Precipitation, MM = Missing Value Source: NWS Daily Summary

Daily Weather History Graph

Daily Weather History Graph

Search for Another Location

Airport or City:

Astronomy

Oct. 27, 2019 Rise Set
Actual Time 7:25 AM MDT 6:26 PM MDT
Civil Twilight 7:00 AM MDT 6:51 PM MDT
Nautical Twilight 6:31 AM MDT 7:20 PM MDT
Astronomical Twilight 6:03 AM MDT 7:49 PM MDT
Moon 6:43 AM MDT (10/27) 6:34 PM MDT (10/27)
Length of Visible Light 11h 51m
Length of Day
11h 00m
Waning Crescent, 0% of the Moon is Illuminated
Oct 27
Waning Crescent
Oct 27
New
Nov 4
First Quarter
Nov 12
Full
Nov 19
Last Quarter

Hourly Weather History & Observations

Time (MDT) Temp. Windchill Dew Point Humidity Pressure Visibility Wind Dir Wind Speed Gust Speed Precip Events Conditions
12:15 AM 46.2 °F 44.1 °F 12.2 °F 25% 29.99 in 10.0 mi North 4.6 mph - N/A   Clear
12:55 AM 40.8 °F 35.0 °F 12.4 °F 31% 29.98 in 10.0 mi NNW 9.2 mph - N/A   Clear
1:15 AM 42.8 °F 41.1 °F 13.1 °F 30% 29.99 in 10.0 mi NW 3.5 mph - N/A   Clear
1:35 AM 43.9 °F 39.9 °F 12.6 °F 28% 29.99 in 10.0 mi NNW 6.9 mph - N/A   Clear
1:55 AM 41.7 °F 36.1 °F 12.9 °F 31% 29.99 in 10.0 mi NNW 9.2 mph - N/A   Clear
2:15 AM 40.8 °F 36.9 °F 13.1 °F 32% 29.99 in 10.0 mi NNW 5.8 mph - N/A   Clear
2:35 AM 42.1 °F 39.2 °F 13.1 °F 31% 29.99 in 10.0 mi North 4.6 mph - N/A   Clear
2:55 AM 41.2 °F 36.6 °F 12.7 °F 31% 29.99 in 10.0 mi North 6.9 mph - N/A   Clear
3:15 AM 38.3 °F 31.9 °F 13.1 °F 36% 29.98 in 10.0 mi North 9.2 mph - N/A   Clear
3:35 AM 40.6 °F 34.3 °F 13.6 °F 33% 29.98 in 10.0 mi NNW 10.4 mph - N/A   Clear
3:55 AM 39.2 °F 32.5 °F 12.7 °F 34% 29.98 in 10.0 mi NW 10.4 mph - N/A   Clear
4:15 AM 41.5 °F 35.4 °F 12.7 °F 31% 29.98 in 10.0 mi NW 10.4 mph - N/A   Clear
4:35 AM 40.3 °F 33.4 °F 13.1 °F 33% 29.98 in 10.0 mi NNW 11.5 mph - N/A   Clear
4:55 AM 39.0 °F 32.3 °F 13.1 °F 35% 29.98 in 10.0 mi NNW 10.4 mph - N/A   Clear
5:15 AM 38.3 °F 30.9 °F 13.1 °F 36% 29.97 in 10.0 mi NNW 11.5 mph - N/A   Clear
5:35 AM 38.7 °F 31.4 °F 13.5 °F 36% 29.98 in 10.0 mi NNW 11.5 mph - N/A   Clear
5:55 AM 38.5 °F 32.1 °F 13.3 °F 36% 29.98 in 10.0 mi NNW 9.2 mph - N/A   Clear
6:15 AM 36.3 °F 28.4 °F 13.5 °F 39% 29.97 in 10.0 mi North 11.5 mph - N/A   Clear
6:35 AM 40.5 °F 33.6 °F 14.0 °F 34% 29.98 in 10.0 mi NNW 11.5 mph - N/A   Clear
6:55 AM 39.2 °F 35.9 °F 14.4 °F 36% 29.98 in 10.0 mi NW 4.6 mph - N/A   Clear
7:15 AM 40.3 °F 37.1 °F 14.0 °F 34% 29.99 in 10.0 mi NW 4.6 mph - N/A   Clear
7:35 AM 37.4 °F 31.4 °F 14.0 °F 38% 29.99 in 10.0 mi WNW 8.1 mph - N/A   Clear
7:55 AM 45.9 °F 42.3 °F 14.4 °F 28% 30.00 in 10.0 mi WNW 6.9 mph - N/A   Clear
8:15 AM 44.1 °F 41.5 °F 15.4 °F 32% 30.00 in 10.0 mi NW 4.6 mph - N/A   Clear
8:35 AM 48.0 °F - 17.2 °F 29% 30.01 in 10.0 mi Calm Calm - N/A   Clear
8:55 AM 53.4 °F - 16.0 °F 23% 30.02 in 10.0 mi NW 4.6 mph - N/A   Clear
9:15 AM 56.7 °F - 16.7 °F 21% 30.02 in 10.0 mi NW 3.5 mph - N/A   Clear
9:35 AM 59.7 °F - 16.7 °F 19% 30.03 in 10.0 mi NW 3.5 mph - N/A   Clear
9:55 AM 60.6 °F - 18.1 °F 19% 30.03 in 10.0 mi Calm Calm - N/A   Clear
10:15 AM 61.9 °F - 19.4 °F 19% 30.03 in 10.0 mi SSW 3.5 mph - N/A   Clear
10:35 AM 62.1 °F - 20.3 °F 20% 30.03 in 10.0 mi SSE 4.6 mph - N/A   Clear
10:55 AM 62.4 °F - 21.2 °F 21% 30.03 in 10.0 mi Calm Calm - N/A   Clear
11:15 AM 66.0 °F - 23.2 °F 20% 30.02 in 10.0 mi South 10.4 mph - N/A   Clear
11:35 AM 66.4 °F - 21.2 °F 18% 30.02 in 10.0 mi WNW 5.8 mph - N/A   Clear
11:55 AM 69.1 °F - 17.1 °F 14% 30.02 in 10.0 mi WSW 10.4 mph 24.2 mph N/A   Clear
12:35 PM 70.3 °F - 15.6 °F 12% 30.00 in 10.0 mi West 15.0 mph 23.0 mph N/A   Clear
12:55 PM 70.2 °F - 15.8 °F 13% 29.99 in 10.0 mi WSW 15.0 mph 20.7 mph N/A   Clear
1:15 PM 70.5 °F - 15.3 °F 12% 29.98 in 10.0 mi WSW 15.0 mph 21.9 mph N/A   Clear
1:35 PM 70.5 °F - 15.1 °F 12% 29.97 in 10.0 mi WSW 16.1 mph 23.0 mph N/A   Clear
1:55 PM 70.2 °F - 16.3 °F 13% 29.96 in 10.0 mi WSW 13.8 mph 20.7 mph N/A   Clear
2:15 PM 70.7 °F - 17.6 °F 13% 29.96 in 10.0 mi WSW 15.0 mph 21.9 mph N/A   Clear
2:35 PM 70.2 °F - 17.6 °F 14% 29.95 in 10.0 mi WSW 10.4 mph 17.3 mph N/A   Clear
2:55 PM 70.2 °F - 18.1 °F 14% 29.95 in 10.0 mi WSW 13.8 mph - N/A   Clear
3:15 PM 70.3 °F - 18.9 °F 14% 29.94 in 10.0 mi WSW 15.0 mph 19.6 mph N/A   Clear
3:35 PM 70.3 °F - 18.3 °F 14% 29.94 in 10.0 mi WSW 13.8 mph 23.0 mph N/A   Clear
3:55 PM 71.1 °F - 18.3 °F 14% 29.94 in 10.0 mi West 11.5 mph 23.0 mph N/A   Clear
4:15 PM 71.4 °F - 18.3 °F 13% 29.93 in 10.0 mi SW 16.1 mph 19.6 mph N/A   Clear
4:35 PM 70.7 °F - 18.7 °F 14% 29.93 in 10.0 mi SW 16.1 mph 21.9 mph N/A   Clear
4:55 PM 70.9 °F - 19.0 °F 14% 29.93 in 10.0 mi WSW 13.8 mph 24.2 mph N/A   Clear
5:55 PM 68.7 °F - 21.0 °F 16% 29.92 in 10.0 mi SW 8.1 mph - N/A   Clear
6:15 PM 66.7 °F - 21.2 °F 18% 29.92 in 10.0 mi SW 6.9 mph - N/A   Clear
6:35 PM 64.0 °F - 21.0 °F 19% 29.92 in 10.0 mi SW 6.9 mph - N/A   Clear
6:55 PM 60.1 °F - 19.9 °F 21% 29.92 in 10.0 mi Calm Calm - N/A   Clear
7:15 PM 61.0 °F - 21.2 °F 22% 29.92 in 10.0 mi Calm Calm - N/A   Clear
7:35 PM 55.8 °F - 21.2 °F 26% 29.92 in 10.0 mi West 3.5 mph - N/A   Clear
7:55 PM 57.2 °F - 22.1 °F 26% 29.93 in 10.0 mi Calm Calm - N/A   Clear
8:15 PM 57.6 °F - 22.6 °F 26% 29.94 in 10.0 mi WSW 4.6 mph - N/A   Clear
8:35 PM 59.4 °F - 23.9 °F 26% 29.94 in 10.0 mi WSW 5.8 mph - N/A   Clear
8:55 PM 58.1 °F - 25.7 °F 29% 29.94 in 10.0 mi SW 3.5 mph - N/A   Clear
9:15 PM 57.0 °F - 27.1 °F 32% 29.95 in 10.0 mi WSW 5.8 mph - N/A   Clear
9:35 PM 58.6 °F - 27.9 °F 31% 29.95 in 10.0 mi WSW 10.4 mph - N/A   Clear
9:55 PM 58.3 °F - 27.5 °F 31% 29.96 in 10.0 mi WSW 11.5 mph - N/A   Clear
10:15 PM 57.2 °F - 27.5 °F 32% 29.96 in 10.0 mi WSW 8.1 mph - N/A   Clear
10:35 PM 54.1 °F - 27.3 °F 36% 29.96 in 10.0 mi West 4.6 mph - N/A   Clear
10:55 PM 52.2 °F - 27.0 °F 38% 29.96 in 10.0 mi WSW 4.6 mph - N/A   Clear
11:15 PM 51.3 °F - 27.0 °F 39% 29.96 in 10.0 mi SW 9.2 mph - N/A   Clear
11:35 PM 52.2 °F - 27.0 °F 38% 29.95 in 10.0 mi SW 6.9 mph - N/A   Clear
11:55 PM 51.1 °F - 26.8 °F 39% 29.95 in 10.0 mi SW 8.1 mph - N/A   Clear